SCP
0 0 0 0 0 0 0 0 0 0 0 0 0 0 0 0 0 0 0 0 0 0 0 0 0 0 0 0 0 0 0 0 0 0 0 0 0 0 0 0 0 0 0
0 0 0 0 0 0 0 0 0 0 0 0 0 0 0 0 0 0 0 0 0 0 0 0 0 0 0 0 0 0 0 0 0 0 0 0 0 0 0 0 0 0 0
0 0 0 0 0 0 0 0 0 0 0 0 0 0 0 0 0 0 0 0 0 0 0 0 0 0 0 0 0 0 0 0 0 0 0 0 0 0 0 0 0 0 0
0 0 0 0 0 0 0 0 0 0 0 0 0 0 0 0 0 0 0 0 0 0 0 0 0 0 0 0 0 0 0 0 0 0 0 0 0 0 0 0 0 0 0
0 0 0 0 0 0 0 0 0 0 0 0 0 0 0 0 0 0 0 0 0 0 0 0 0 0 0 0 0 0 0 0 0 0 0 0 0 0 0 0 0 0 0
0 0 0 0 0 0 0 0 0 0 0 0 0 0 0 0 0 0 0 0 0 0 0 0 0 0 0 0 0 0 0 0 0 0 -0 0 0 0 0 0 0 0 0
0 0 0 0 0 0 0 0 0 0 0 0 0 0 0 0 0 0 0 0 0 0 0 0 0 0 0 0 0 0 0 0 0 0 0 -0 -0 -0 0 0 0 0 0
0 0 0 0 0 0 0 0 0 0 0 0 0 0 0 0 0 0 0 0 0 0 0 0 0 0 0 0 0 0 0 0 0 0 0 0 -0 -0 -0 -0 -0 0 0
0 0 0 0 0 0 0 0 0 0 0 0 0 0 0 0 0 0 0 0 0 0 0 0 0 0 0 0 0 0 0 0 0 0 0 0 0 0 0 0 -0 0 0
0 0 0 0 0 0 0 0 0 0 0 0 0 0 0 0 0 0 0 0 0 0 0 0 0 0 0 0 0 0 0 0 0 0 0 0 0 0 0 0 0 -0 -0
0 0 0 0 0 0 0 0 0 0 0 0 0 0 0 0 0 0 0 0 0 0 0 0 0 0 0 0 0 0 0 0 0 0 0 0 0 0 0 0 0 0 -0
0 0 0 0 0 0 0 0 0 0 0 0 0 0 0 0 0 0 0 0 0 0 0 0 0 0 0 0 0 0 0 0 0 0 0 0 0 0 0 0 0 0 -0
0 0 0 0 0 0 0 0 0 0 0 0 0 0 0 0 0 0 0 0 0 0 0 0 0 0 0 0 0 0 0 0 0 0 0 0 0 0 0 0 0 0 0
0 0 0 0 0 0 0 0 0 0 0 0 0 0 0 0 0 -0 -0 0 0 0 0 0 0 0 0 0 0 0 0 0 0 0 0 0 0 0 0 0 0 0 0
0 0 0 0 0 0 0 0 0 0 0 0 0 0 -0 -0 -0 0 0 0 0 0 0 0 0 0 0 0 0 0 0 0 0 0 0 0 0 0 0 0 0 0 0
0 0 0 0 0 0 0 0 -0 -0 0 0 0 0 -0 0 -0 0 0 0 0 0 0 0 0 0 0 0 0 0 0 0 0 0 0 0 0 0 0 0 0 0 0
0 0 0 0 0 0 0 0 -0 -0 -0 -0 -0 0 0 0 0 0 0 0 0 0 0 0 0 0 0 0 0 0 0 0 0 0 0 0 0 0 0 0 0 0 0
0 0 0 0 0 0 0 -0 0 0 0 -0 -0 0 0 0 0 0 0 0 0 0 0 0 0 0 0 0 0 0 0 0 0 0 0 0 0 0 0 0 0 0 0
0 0 0 0 0 0 0 0 0 0 0 0 -0 0 0 0 0 0 0 0 0 0 0 0 0 0 0 0 0 0 0 0 0 0 0 0 0 0 0 0 0 0 0
0 0 0 0 0 0 0 0 0 0 0 0 0 0 0 0 0 0 0 0 0 0 0 0 0 0 0 0 0 0 0 0 0 0 0 0 0 0 0 0 0 0 0
0 0 0 0 0 0 0 0 0 0 0 0 0 0 0 0 0 0 0 0 0 0 0 0 0 0 0 0 0 0 0 0 0 0 0 0 0 0 0 0 0 0 0
0 0 0 0 0 0 0 -0 0 -0 -0 0 0 0 0 0 0 0 0 0 0 0 0 0 0 0 0 0 0 0 0 0 0 0 0 0 0 0 0 0 0 0 0
0 0 0 0 0 0 -0 -0 -0 0 0 0 0 0 0 0 0 0 0 0 0 0 0 0 0 0 0 0 0 0 0 0 0 0 0 0 0 0 0 0 0 0 0
0 0 0 0 0 0 0 0 0 0 0 0 0 0 0 0 0 0 0 0 0 0 0 0 0 0 0 0 0 0 0 0 0 0 0 0 0 0 0 0 0 0 0
0 0 0 0 0 0 0 0 0 0 0 0 0 0 0 0 0 0 0 0 0 0 0 0 0 0 0 0 0 0 0 0 0 0 0 0 0 0 0 0 0 0 0
0 0 0 0 0 0 0 0 0 0 0 0 0 0 0 0 0 0 0 0 0 0 0 0 0 0 0 0 0 0 0 0 0 0 0 0 0 0 0 0 0 0 0
Wind_Speed_500mb
34 34 32 29 29 28 26 26 26 26 23 23 20 14 11 10 6 5 3 5 10 10 13 14 19 20 17 16 15 15 16 13 14 20 20 19 18 17 20 23 29 31 34
41 35 25 23 26 24 21 19 17 16 16 11 8 6 4 3 5 2 1 1 8 9 10 12 13 16 13 9 6 4 3 8 7 7 13 14 12 15 17 16 15 20 27
42 32 32 28 23 20 16 12 10 9 7 4 1 2 5 8 8 9 10 10 9 10 13 14 18 19 15 16 12 10 9 15 10 8 12 19 19 19 18 23 18 13 15
42 38 32 26 22 15 10 8 8 5 4 5 4 7 10 9 9 12 19 25 25 22 22 21 23 26 25 24 22 19 17 19 17 14 15 19 24 23 23 16 18 18 16
44 40 30 25 19 14 10 10 9 5 7 9 9 11 12 9 12 15 18 22 23 25 26 23 25 27 26 24 24 22 16 18 19 21 22 22 31 38 37 35 26 19 10
46 37 32 26 21 17 14 13 14 16 16 15 15 16 15 10 11 12 8 8 16 21 26 23 25 27 27 26 22 17 21 20 20 24 24 24 28 37 39 40 41 37 27
43 39 34 26 20 20 19 19 21 20 19 19 18 18 14 9 7 3 2 1 4 11 19 19 21 23 21 18 16 13 14 19 20 20 21 24 27 32 39 40 43 39 27
47 43 35 26 24 24 22 23 24 23 24 25 26 26 22 17 16 10 4 5 5 5 8 11 11 13 16 15 14 11 14 18 18 15 19 22 19 24 28 32 41 37 20
48 41 33 29 29 30 31 29 27 29 30 33 28 25 21 17 15 18 16 6 4 6 0 11 6 7 11 14 14 13 16 22 16 17 20 20 17 21 26 26 35 38 41
44 38 33 30 28 30 33 33 31 31 26 26 22 19 14 10 5 8 13 13 1 4 8 11 6 2 5 6 7 9 14 20 17 25 24 24 20 13 20 25 28 40 38
39 36 33 28 27 30 34 32 31 28 25 23 23 20 16 11 8 7 6 5 7 7 9 9 5 8 9 8 7 11 17 19 19 23 24 35 17 19 20 19 20 29 37
39 38 33 30 33 36 35 34 35 29 26 22 19 15 15 17 18 16 15 10 8 10 12 11 4 6 14 18 14 15 15 17 22 26 31 36 27 21 19 20 13 19 28
44 38 33 34 35 36 35 38 38 33 27 21 18 15 13 12 15 15 16 12 13 13 13 12 11 13 12 10 14 14 17 22 28 26 30 30 33 26 21 15 15 22 29
42 38 36 36 37 34 33 35 38 33 25 20 21 18 16 16 11 12 14 13 14 17 19 19 19 19 22 25 26 24 26 27 32 27 29 25 31 25 21 22 28 34 42
41 37 36 36 39 37 36 38 36 27 22 18 14 12 12 11 11 15 17 19 22 24 26 26 26 26 25 27 35 36 29 23 28 31 28 27 27 30 31 33 36 43 52
40 37 38 41 44 39 41 36 32 30 25 21 17 15 16 16 18 21 24 30 32 34 36 34 37 39 35 28 24 23 21 25 29 31 31 30 28 30 33 34 42 52 53
37 36 42 45 44 45 47 39 34 33 27 23 23 25 30 29 31 34 35 36 39 45 48 47 44 40 27 23 23 24 31 30 26 36 33 30 30 28 37 47 45 40 35
30 32 40 42 41 45 42 37 31 28 29 27 26 32 35 38 44 48 45 43 46 49 46 40 40 34 29 26 26 29 35 29 28 33 30 29 33 41 42 40 34 34 35
35 39 43 41 42 42 37 34 35 32 30 26 29 28 28 28 34 41 46 50 48 44 41 39 37 37 34 31 34 35 29 28 29 27 29 34 36 33 38 36 32 29 34
41 52 48 40 37 35 30 31 30 25 26 31 37 33 28 31 30 29 31 38 42 40 37 35 36 36 34 31 31 30 30 24 26 29 34 29 25 32 40 36 31 33 34
50 54 45 36 33 29 28 29 28 28 27 22 21 27 28 19 31 40 37 38 38 36 34 32 31 30 29 29 29 29 26 27 30 30 24 23 27 34 40 37 36 34 37
48 44 37 34 31 30 26 31 32 31 28 31 34 32 33 32 32 36 37 36 36 35 32 29 29 29 30 31 29 26 25 24 29 24 23 26 33 41 45 42 39 37 38
45 38 31 31 32 33 33 32 36 33 40 40 35 37 33 36 38 34 35 34 31 30 30 29 30 34 35 34 28 24 26 27 25 27 30 33 41 49 50 47 42 40 39
43 34 25 16 20 26 33 37 38 34 36 38 38 36 38 33 30 32 31 30 30 29 27 29 34 35 37 30 27 30 30 30 30 31 35 42 50 53 48 43 40 39 38
40 29 19 10 7 8 12 16 18 26 29 31 38 37 27 27 29 30 31 26 27 28 28 33 36 38 37 35 37 37 32 33 36 39 45 51 52 46 42 44 41 38 37
37 24 12 14 15 12 17 20 16 15 25 32 32 29 30 31 34 33 29 29 27 27 31 36 41 37 31 31 29 31 33 37 41 47 50 48 42 41 43 44 43 42 41
Wind_Direction_500mb
205 211 217 216 224 224 228 239 250 261 273 283 289 298 297 281 272 273 247 232 272 299 313 315 320 320 308 293 280 276 275 271 268 279 303 300 303 297 272 274 276 269 262
201 200 197 202 202 212 215 225 243 264 277 283 296 306 280 171 107 108 100 234 298 313 328 351 2 10 357 338 328 257 325 354 347 337 336 325 336 333 316 301 286 283 283
189 189 186 185 194 201 218 238 260 269 272 262 324 30 156 138 103 80 59 64 78 70 53 38 36 37 42 50 47 91 88 41 27 9 342 344 348 321 290 278 289 304 295
185 194 196 193 197 213 237 266 272 250 199 170 140 128 139 123 111 93 86 78 79 70 53 50 48 46 46 46 48 54 44 39 44 41 33 23 15 7 5 335 288 277 292
195 194 192 195 207 219 242 264 248 203 166 152 141 138 141 134 115 109 98 83 73 60 52 54 53 48 47 51 56 67 58 38 39 42 39 28 16 4 1 354 343 343 325
199 195 193 199 208 230 241 223 200 171 152 132 128 129 136 137 110 111 115 88 74 61 53 65 63 58 57 51 52 57 48 44 44 49 43 34 27 25 22 17 11 8 358
197 192 191 199 217 230 228 198 178 165 151 132 125 127 127 116 81 72 159 52 108 68 59 76 76 72 72 73 65 60 43 27 27 31 31 27 26 24 19 17 17 14 8
192 193 194 202 220 221 205 186 170 164 156 147 135 121 115 97 73 46 336 263 188 136 73 56 61 68 69 71 57 59 51 27 32 27 13 5 359 6 11 15 11 15 29
190 197 204 215 216 208 195 180 170 160 153 151 145 135 122 104 77 52 43 83 174 191 9 13 16 54 57 57 55 65 38 29 20 356 344 342 336 349 358 4 15 14 14
194 202 210 216 211 200 187 175 170 163 159 169 175 168 164 145 101 38 39 52 324 268 317 334 338 351 5 52 57 21 8 352 356 6 357 348 350 346 359 7 7 15 12
197 208 212 211 203 191 183 175 168 169 176 183 188 195 197 210 218 255 311 10 18 11 352 329 305 269 267 244 281 313 343 343 348 2 0 0 323 331 333 343 351 3 6
202 209 207 204 194 186 183 177 176 183 183 187 195 213 235 239 244 241 257 274 308 331 338 346 279 299 311 248 258 302 329 348 348 338 343 351 347 323 333 343 330 348 357
204 204 205 194 190 186 184 177 181 187 188 193 219 227 234 258 240 227 235 262 288 312 317 320 312 264 279 295 286 293 311 324 327 325 340 348 347 332 322 331 308 325 338
202 204 195 190 184 187 183 186 190 191 199 211 220 228 237 239 246 246 231 247 274 290 301 306 304 296 273 271 279 285 293 303 310 308 325 331 343 332 325 321 323 325 327
201 199 193 189 184 182 181 182 188 198 207 222 202 172 189 220 226 240 254 262 274 284 292 300 305 307 286 275 276 282 279 292 314 305 304 314 328 329 322 318 318 321 323
195 196 196 191 187 191 186 187 197 194 201 201 202 213 229 241 241 249 260 265 268 277 282 291 301 307 299 283 296 297 290 304 301 296 292 299 310 313 316 312 313 314 317
202 201 197 189 187 188 186 194 195 193 206 225 242 257 264 267 268 267 268 272 276 279 282 289 296 300 293 278 288 291 300 291 292 305 287 291 301 304 310 313 316 318 322
197 197 187 184 186 184 189 195 205 213 229 246 257 268 271 272 273 269 272 277 279 284 286 285 285 285 278 271 276 286 293 289 300 289 286 295 301 309 316 319 320 322 323
188 185 178 177 177 189 205 220 236 246 256 271 278 275 279 275 264 261 262 268 277 279 279 279 275 278 279 279 281 286 284 296 292 283 289 296 303 310 321 319 313 315 319
187 175 174 181 192 204 216 225 239 250 265 274 275 273 270 271 265 268 268 271 275 276 280 280 274 272 275 277 285 285 283 272 281 290 296 295 300 316 325 318 310 308 313
183 177 182 194 206 214 228 231 242 264 284 275 276 277 263 253 287 281 277 277 274 279 278 278 272 273 279 288 284 277 273 285 296 301 291 289 303 318 324 318 310 305 307
184 186 197 202 212 223 235 241 252 260 279 272 284 270 256 270 293 270 270 271 274 270 273 282 283 290 295 293 282 274 282 292 309 302 294 294 305 316 319 316 310 304 302
189 197 211 222 233 243 249 254 253 265 268 278 281 267 256 271 269 269 276 270 265 276 280 277 288 301 303 294 275 272 287 303 305 300 298 299 306 313 314 310 304 303 303
192 195 202 223 239 244 243 242 256 270 274 271 268 270 272 263 270 285 276 277 285 274 269 286 299 300 305 287 271 277 283 284 288 292 293 298 307 312 310 306 303 301 301
187 184 198 235 233 244 235 235 244 265 286 289 274 265 265 291 297 297 293 293 285 268 285 301 305 307 298 279 280 282 276 282 285 289 294 302 307 309 309 309 303 299 298
186 189 216 214 212 223 232 239 265 304 313 293 270 278 291 301 305 301 293 290 277 283 299 307 310 305 298 296 288 282 285 288 291 294 300 303 303 305 306 309 306 297 296
Wind_Speed_850mb
34 34 32 29 29 28 26 26 26 26 23 23 20 14 11 10 6 5 3 5 10 10 13 14 19 20 17 16 15 15 16 13 14 20 20 19 18 17 20 23 29 31 34
41 35 25 23 26 24 21 19 17 16 16 11 8 6 4 3 5 2 1 1 8 9 10 12 13 16 13 9 6 4 3 8 7 7 13 14 12 15 17 16 15 20 27
42 32 32 28 23 20 16 12 10 9 7 4 1 2 5 8 8 9 10 10 9 10 13 14 18 19 15 16 12 10 9 15 10 8 12 19 19 19 18 23 18 13 15
42 38 32 26 22 15 10 8 8 5 4 5 4 7 10 9 9 12 19 25 25 22 22 21 23 26 25 24 22 19 17 19 17 14 15 19 24 23 23 16 18 18 16
44 40 30 25 19 14 10 10 9 5 7 9 9 11 12 9 12 15 18 22 23 25 26 23 25 27 26 24 24 22 16 18 19 21 22 22 31 38 37 35 26 19 10
46 37 32 26 21 17 14 13 14 16 16 15 15 16 15 10 11 12 8 8 16 21 26 23 25 27 27 26 22 17 21 20 20 24 24 24 28 37 39 40 41 37 27
43 39 34 26 20 20 19 19 21 20 19 19 18 18 14 9 7 3 2 1 4 11 19 19 21 23 21 18 16 13 14 19 20 20 21 24 27 32 39 40 43 39 27
47 43 35 26 24 24 22 23 24 23 24 25 26 26 22 17 16 10 4 5 5 5 8 11 11 13 16 15 14 11 14 18 18 15 19 22 19 24 28 32 41 37 20
48 41 33 29 29 30 31 29 27 29 30 33 28 25 21 17 15 18 16 6 4 6 0 11 6 7 11 14 14 13 16 22 16 17 20 20 17 21 26 26 35 38 41
44 38 33 30 28 30 33 33 31 31 26 26 22 19 14 10 5 8 13 13 1 4 8 11 6 2 5 6 7 9 14 20 17 25 24 24 20 13 20 25 28 40 38
39 36 33 28 27 30 34 32 31 28 25 23 23 20 16 11 8 7 6 5 7 7 9 9 5 8 9 8 7 11 17 19 19 23 24 35 17 19 20 19 20 29 37
39 38 33 30 33 36 35 34 35 29 26 22 19 15 15 17 18 16 15 10 8 10 12 11 4 6 14 18 14 15 15 17 22 26 31 36 27 21 19 20 13 19 28
44 38 33 34 35 36 35 38 38 33 27 21 18 15 13 12 15 15 16 12 13 13 13 12 11 13 12 10 14 14 17 22 28 26 30 30 33 26 21 15 15 22 29
42 38 36 36 37 34 33 35 38 33 25 20 21 18 16 16 11 12 14 13 14 17 19 19 19 19 22 25 26 24 26 27 32 27 29 25 31 25 21 22 28 34 42
41 37 36 36 39 37 36 38 36 27 22 18 14 12 12 11 11 15 17 19 22 24 26 26 26 26 25 27 35 36 29 23 28 31 28 27 27 30 31 33 36 43 52
40 37 38 41 44 39 41 36 32 30 25 21 17 15 16 16 18 21 24 30 32 34 36 34 37 39 35 28 24 23 21 25 29 31 31 30 28 30 33 34 42 52 53
37 36 42 45 44 45 47 39 34 33 27 23 23 25 30 29 31 34 35 36 39 45 48 47 44 40 27 23 23 24 31 30 26 36 33 30 30 28 37 47 45 40 35
30 32 40 42 41 45 42 37 31 28 29 27 26 32 35 38 44 48 45 43 46 49 46 40 40 34 29 26 26 29 35 29 28 33 30 29 33 41 42 40 34 34 35
35 39 43 41 42 42 37 34 35 32 30 26 29 28 28 28 34 41 46 50 48 44 41 39 37 37 34 31 34 35 29 28 29 27 29 34 36 33 38 36 32 29 34
41 52 48 40 37 35 30 31 30 25 26 31 37 33 28 31 30 29 31 38 42 40 37 35 36 36 34 31 31 30 30 24 26 29 34 29 25 32 40 36 31 33 34
50 54 45 36 33 29 28 29 28 28 27 22 21 27 28 19 31 40 37 38 38 36 34 32 31 30 29 29 29 29 26 27 30 30 24 23 27 34 40 37 36 34 37
48 44 37 34 31 30 26 31 32 31 28 31 34 32 33 32 32 36 37 36 36 35 32 29 29 29 30 31 29 26 25 24 29 24 23 26 33 41 45 42 39 37 38
45 38 31 31 32 33 33 32 36 33 40 40 35 37 33 36 38 34 35 34 31 30 30 29 30 34 35 34 28 24 26 27 25 27 30 33 41 49 50 47 42 40 39
43 34 25 16 20 26 33 37 38 34 36 38 38 36 38 33 30 32 31 30 30 29 27 29 34 35 37 30 27 30 30 30 30 31 35 42 50 53 48 43 40 39 38
40 29 19 10 7 8 12 16 18 26 29 31 38 37 27 27 29 30 31 26 27 28 28 33 36 38 37 35 37 37 32 33 36 39 45 51 52 46 42 44 41 38 37
37 24 12 14 15 12 17 20 16 15 25 32 32 29 30 31 34 33 29 29 27 27 31 36 41 37 31 31 29 31 33 37 41 47 50 48 42 41 43 44 43 42 41
Wind_Direction_850mb
205 211 217 216 224 224 228 239 250 261 273 283 289 298 297 281 272 273 247 232 272 299 313 315 320 320 308 293 280 276 275 271 268 279 303 300 303 297 272 274 276 269 262
201 200 197 202 202 212 215 225 243 264 277 283 296 306 280 171 107 108 100 234 298 313 328 351 2 10 357 338 328 257 325 354 347 337 336 325 336 333 316 301 286 283 283
189 189 186 185 194 201 218 238 260 269 272 262 324 30 156 138 103 80 59 64 78 70 53 38 36 37 42 50 47 91 88 41 27 9 342 344 348 321 290 278 289 304 295
185 194 196 193 197 213 237 266 272 250 199 170 140 128 139 123 111 93 86 78 79 70 53 50 48 46 46 46 48 54 44 39 44 41 33 23 15 7 5 335 288 277 292
195 194 192 195 207 219 242 264 248 203 166 152 141 138 141 134 115 109 98 83 73 60 52 54 53 48 47 51 56 67 58 38 39 42 39 28 16 4 1 354 343 343 325
199 195 193 199 208 230 241 223 200 171 152 132 128 129 136 137 110 111 115 88 74 61 53 65 63 58 57 51 52 57 48 44 44 49 43 34 27 25 22 17 11 8 358
197 192 191 199 217 230 228 198 178 165 151 132 125 127 127 116 81 72 159 52 108 68 59 76 76 72 72 73 65 60 43 27 27 31 31 27 26 24 19 17 17 14 8
192 193 194 202 220 221 205 186 170 164 156 147 135 121 115 97 73 46 336 263 188 136 73 56 61 68 69 71 57 59 51 27 32 27 13 5 359 6 11 15 11 15 29
190 197 204 215 216 208 195 180 170 160 153 151 145 135 122 104 77 52 43 83 174 191 9 13 16 54 57 57 55 65 38 29 20 356 344 342 336 349 358 4 15 14 14
194 202 210 216 211 200 187 175 170 163 159 169 175 168 164 145 101 38 39 52 324 268 317 334 338 351 5 52 57 21 8 352 356 6 357 348 350 346 359 7 7 15 12
197 208 212 211 203 191 183 175 168 169 176 183 188 195 197 210 218 255 311 10 18 11 352 329 305 269 267 244 281 313 343 343 348 2 0 0 323 331 333 343 351 3 6
202 209 207 204 194 186 183 177 176 183 183 187 195 213 235 239 244 241 257 274 308 331 338 346 279 299 311 248 258 302 329 348 348 338 343 351 347 323 333 343 330 348 357
204 204 205 194 190 186 184 177 181 187 188 193 219 227 234 258 240 227 235 262 288 312 317 320 312 264 279 295 286 293 311 324 327 325 340 348 347 332 322 331 308 325 338
202 204 195 190 184 187 183 186 190 191 199 211 220 228 237 239 246 246 231 247 274 290 301 306 304 296 273 271 279 285 293 303 310 308 325 331 343 332 325 321 323 325 327
201 199 193 189 184 182 181 182 188 198 207 222 202 172 189 220 226 240 254 262 274 284 292 300 305 307 286 275 276 282 279 292 314 305 304 314 328 329 322 318 318 321 323
195 196 196 191 187 191 186 187 197 194 201 201 202 213 229 241 241 249 260 265 268 277 282 291 301 307 299 283 296 297 290 304 301 296 292 299 310 313 316 312 313 314 317
202 201 197 189 187 188 186 194 195 193 206 225 242 257 264 267 268 267 268 272 276 279 282 289 296 300 293 278 288 291 300 291 292 305 287 291 301 304 310 313 316 318 322
197 197 187 184 186 184 189 195 205 213 229 246 257 268 271 272 273 269 272 277 279 284 286 285 285 285 278 271 276 286 293 289 300 289 286 295 301 309 316 319 320 322 323
188 185 178 177 177 189 205 220 236 246 256 271 278 275 279 275 264 261 262 268 277 279 279 279 275 278 279 279 281 286 284 296 292 283 289 296 303 310 321 319 313 315 319
187 175 174 181 192 204 216 225 239 250 265 274 275 273 270 271 265 268 268 271 275 276 280 280 274 272 275 277 285 285 283 272 281 290 296 295 300 316 325 318 310 308 313
183 177 182 194 206 214 228 231 242 264 284 275 276 277 263 253 287 281 277 277 274 279 278 278 272 273 279 288 284 277 273 285 296 301 291 289 303 318 324 318 310 305 307
184 186 197 202 212 223 235 241 252 260 279 272 284 270 256 270 293 270 270 271 274 270 273 282 283 290 295 293 282 274 282 292 309 302 294 294 305 316 319 316 310 304 302
189 197 211 222 233 243 249 254 253 265 268 278 281 267 256 271 269 269 276 270 265 276 280 277 288 301 303 294 275 272 287 303 305 300 298 299 306 313 314 310 304 303 303
192 195 202 223 239 244 243 242 256 270 274 271 268 270 272 263 270 285 276 277 285 274 269 286 299 300 305 287 271 277 283 284 288 292 293 298 307 312 310 306 303 301 301
187 184 198 235 233 244 235 235 244 265 286 289 274 265 265 291 297 297 293 293 285 268 285 301 305 307 298 279 280 282 276 282 285 289 294 302 307 309 309 309 303 299 298
186 189 216 214 212 223 232 239 265 304 313 293 270 278 291 301 305 301 293 290 277 283 299 307 310 305 298 296 288 282 285 288 291 294 300 303 303 305 306 309 306 297 296